Index of /20260430/WXO-DD/model_rdps/10km/00/079
Name Last modified Size Description
Parent Directory -
20260430T00Z_MSC_RDPS_AbsoluteVorticity_IsbL-0250_RLatLon0.09_PT079H.grib2 2026-04-30 03:04 616K
20260430T00Z_MSC_RDPS_AbsoluteVorticity_IsbL-0500_RLatLon0.09_PT079H.grib2 2026-04-30 03:04 565K
20260430T00Z_MSC_RDPS_AbsoluteVorticity_IsbL-0700_RLatLon0.09_PT079H.grib2 2026-04-30 03:04 618K
20260430T00Z_MSC_RDPS_AbsoluteVorticity_IsbL-0850_RLatLon0.09_PT079H.grib2 2026-04-30 03:04 775K
20260430T00Z_MSC_RDPS_AirTemp_AGL-120m_RLatLon0.09_PT079H.grib2 2026-04-30 03:04 375K
20260430T00Z_MSC_RDPS_AirTemp_AGL-2m_RLatLon0.09_PT079H.grib2 2026-04-30 03:04 631K
20260430T00Z_MSC_RDPS_AirTemp_AGL-40m_RLatLon0.09_PT079H.grib2 2026-04-30 03:04 392K
20260430T00Z_MSC_RDPS_AirTemp_AGL-80m_RLatLon0.09_PT079H.grib2 2026-04-30 03:04 382K
20260430T00Z_MSC_RDPS_AirTemp_IsbL-0001_RLatLon0.09_PT079H.grib2 2026-04-30 03:04 297K
20260430T00Z_MSC_RDPS_AirTemp_IsbL-0005_RLatLon0.09_PT079H.grib2 2026-04-30 03:04 288K
20260430T00Z_MSC_RDPS_AirTemp_IsbL-0010_RLatLon0.09_PT079H.grib2 2026-04-30 03:04 297K
20260430T00Z_MSC_RDPS_AirTemp_IsbL-0020_RLatLon0.09_PT079H.grib2 2026-04-30 03:04 412K
20260430T00Z_MSC_RDPS_AirTemp_IsbL-0030_RLatLon0.09_PT079H.grib2 2026-04-30 03:04 339K
20260430T00Z_MSC_RDPS_AirTemp_IsbL-0050_RLatLon0.09_PT079H.grib2 2026-04-30 03:04 316K
20260430T00Z_MSC_RDPS_AirTemp_IsbL-0100_RLatLon0.09_PT079H.grib2 2026-04-30 03:04 391K
20260430T00Z_MSC_RDPS_AirTemp_IsbL-0150_RLatLon0.09_PT079H.grib2 2026-04-30 03:04 421K
20260430T00Z_MSC_RDPS_AirTemp_IsbL-0175_RLatLon0.09_PT079H.grib2 2026-04-30 03:04 411K
20260430T00Z_MSC_RDPS_AirTemp_IsbL-0200_RLatLon0.09_PT079H.grib2 2026-04-30 03:04 417K
20260430T00Z_MSC_RDPS_AirTemp_IsbL-0225_RLatLon0.09_PT079H.grib2 2026-04-30 03:04 418K
20260430T00Z_MSC_RDPS_AirTemp_IsbL-0250_RLatLon0.09_PT079H.grib2 2026-04-30 03:04 423K
20260430T00Z_MSC_RDPS_AirTemp_IsbL-0275_RLatLon0.09_PT079H.grib2 2026-04-30 03:04 403K
20260430T00Z_MSC_RDPS_AirTemp_IsbL-0300_RLatLon0.09_PT079H.grib2 2026-04-30 03:04 412K
20260430T00Z_MSC_RDPS_AirTemp_IsbL-0350_RLatLon0.09_PT079H.grib2 2026-04-30 03:04 425K
20260430T00Z_MSC_RDPS_AirTemp_IsbL-0400_RLatLon0.09_PT079H.grib2 2026-04-30 03:04 426K
20260430T00Z_MSC_RDPS_AirTemp_IsbL-0450_RLatLon0.09_PT079H.grib2 2026-04-30 03:04 398K
20260430T00Z_MSC_RDPS_AirTemp_IsbL-0500_RLatLon0.09_PT079H.grib2 2026-04-30 03:04 410K
20260430T00Z_MSC_RDPS_AirTemp_IsbL-0550_RLatLon0.09_PT079H.grib2 2026-04-30 03:04 425K
20260430T00Z_MSC_RDPS_AirTemp_IsbL-0600_RLatLon0.09_PT079H.grib2 2026-04-30 03:04 440K
20260430T00Z_MSC_RDPS_AirTemp_IsbL-0650_RLatLon0.09_PT079H.grib2 2026-04-30 03:04 454K
20260430T00Z_MSC_RDPS_AirTemp_IsbL-0700_RLatLon0.09_PT079H.grib2 2026-04-30 03:04 481K
20260430T00Z_MSC_RDPS_AirTemp_IsbL-0750_RLatLon0.09_PT079H.grib2 2026-04-30 03:04 516K
20260430T00Z_MSC_RDPS_AirTemp_IsbL-0800_RLatLon0.09_PT079H.grib2 2026-04-30 03:04 447K
20260430T00Z_MSC_RDPS_AirTemp_IsbL-0850_RLatLon0.09_PT079H.grib2 2026-04-30 03:04 498K
20260430T00Z_MSC_RDPS_AirTemp_IsbL-0875_RLatLon0.09_PT079H.grib2 2026-04-30 03:04 518K
20260430T00Z_MSC_RDPS_AirTemp_IsbL-0900_RLatLon0.09_PT079H.grib2 2026-04-30 03:04 527K
20260430T00Z_MSC_RDPS_AirTemp_IsbL-0925_RLatLon0.09_PT079H.grib2 2026-04-30 03:04 520K
20260430T00Z_MSC_RDPS_AirTemp_IsbL-0950_RLatLon0.09_PT079H.grib2 2026-04-30 03:04 522K
20260430T00Z_MSC_RDPS_AirTemp_IsbL-0970_RLatLon0.09_PT079H.grib2 2026-04-30 03:04 518K
20260430T00Z_MSC_RDPS_AirTemp_IsbL-0985_RLatLon0.09_PT079H.grib2 2026-04-30 03:04 507K
20260430T00Z_MSC_RDPS_AirTemp_IsbL-1000_RLatLon0.09_PT079H.grib2 2026-04-30 03:04 486K
20260430T00Z_MSC_RDPS_AirTemp_IsbL-1015_RLatLon0.09_PT079H.grib2 2026-04-30 03:04 484K
20260430T00Z_MSC_RDPS_Albedo_Sfc_RLatLon0.09_PT079H.grib2 2026-04-30 03:04 158K
20260430T00Z_MSC_RDPS_CAPE_Sfc_RLatLon0.09_PT079H.grib2 2026-04-30 03:04 1.6M
20260430T00Z_MSC_RDPS_CIN_Sfc_RLatLon0.09_PT079H.grib2 2026-04-30 03:04 1.1M
20260430T00Z_MSC_RDPS_CloudWater_EAtm_RLatLon0.09_PT079H.grib2 2026-04-30 03:04 220K
20260430T00Z_MSC_RDPS_ConvectivePrecip-Accum_Sfc_RLatLon0.09_PT079H.grib2 2026-04-30 03:04 1.3M
20260430T00Z_MSC_RDPS_DewPointDepression_AGL-2m_RLatLon0.09_PT079H.grib2 2026-04-30 03:04 396K
20260430T00Z_MSC_RDPS_DewPointDepression_IsbL-0001_RLatLon0.09_PT079H.grib2 2026-04-30 03:04 193
20260430T00Z_MSC_RDPS_DewPointDepression_IsbL-0005_RLatLon0.09_PT079H.grib2 2026-04-30 03:04 193
20260430T00Z_MSC_RDPS_DewPointDepression_IsbL-0010_RLatLon0.09_PT079H.grib2 2026-04-30 03:04 193
20260430T00Z_MSC_RDPS_DewPointDepression_IsbL-0020_RLatLon0.09_PT079H.grib2 2026-04-30 03:04 193
20260430T00Z_MSC_RDPS_DewPointDepression_IsbL-0030_RLatLon0.09_PT079H.grib2 2026-04-30 03:04 193
20260430T00Z_MSC_RDPS_DewPointDepression_IsbL-0050_RLatLon0.09_PT079H.grib2 2026-04-30 03:04 106K
20260430T00Z_MSC_RDPS_DewPointDepression_IsbL-0100_RLatLon0.09_PT079H.grib2 2026-04-30 03:04 121K
20260430T00Z_MSC_RDPS_DewPointDepression_IsbL-0150_RLatLon0.09_PT079H.grib2 2026-04-30 03:04 150K
20260430T00Z_MSC_RDPS_DewPointDepression_IsbL-0175_RLatLon0.09_PT079H.grib2 2026-04-30 03:04 186K
20260430T00Z_MSC_RDPS_DewPointDepression_IsbL-0200_RLatLon0.09_PT079H.grib2 2026-04-30 03:04 219K
20260430T00Z_MSC_RDPS_DewPointDepression_IsbL-0225_RLatLon0.09_PT079H.grib2 2026-04-30 03:04 252K
20260430T00Z_MSC_RDPS_DewPointDepression_IsbL-0250_RLatLon0.09_PT079H.grib2 2026-04-30 03:04 291K
20260430T00Z_MSC_RDPS_DewPointDepression_IsbL-0275_RLatLon0.09_PT079H.grib2 2026-04-30 03:04 305K
20260430T00Z_MSC_RDPS_DewPointDepression_IsbL-0300_RLatLon0.09_PT079H.grib2 2026-04-30 03:04 325K
20260430T00Z_MSC_RDPS_DewPointDepression_IsbL-0350_RLatLon0.09_PT079H.grib2 2026-04-30 03:04 331K
20260430T00Z_MSC_RDPS_DewPointDepression_IsbL-0400_RLatLon0.09_PT079H.grib2 2026-04-30 03:04 341K
20260430T00Z_MSC_RDPS_DewPointDepression_IsbL-0450_RLatLon0.09_PT079H.grib2 2026-04-30 03:04 348K
20260430T00Z_MSC_RDPS_DewPointDepression_IsbL-0500_RLatLon0.09_PT079H.grib2 2026-04-30 03:04 354K
20260430T00Z_MSC_RDPS_DewPointDepression_IsbL-0550_RLatLon0.09_PT079H.grib2 2026-04-30 03:04 366K
20260430T00Z_MSC_RDPS_DewPointDepression_IsbL-0600_RLatLon0.09_PT079H.grib2 2026-04-30 03:04 376K
20260430T00Z_MSC_RDPS_DewPointDepression_IsbL-0650_RLatLon0.09_PT079H.grib2 2026-04-30 03:04 378K
20260430T00Z_MSC_RDPS_DewPointDepression_IsbL-0700_RLatLon0.09_PT079H.grib2 2026-04-30 03:04 388K
20260430T00Z_MSC_RDPS_DewPointDepression_IsbL-0750_RLatLon0.09_PT079H.grib2 2026-04-30 03:04 406K
20260430T00Z_MSC_RDPS_DewPointDepression_IsbL-0800_RLatLon0.09_PT079H.grib2 2026-04-30 03:04 434K
20260430T00Z_MSC_RDPS_DewPointDepression_IsbL-0850_RLatLon0.09_PT079H.grib2 2026-04-30 03:04 469K
20260430T00Z_MSC_RDPS_DewPointDepression_IsbL-0875_RLatLon0.09_PT079H.grib2 2026-04-30 03:04 471K
20260430T00Z_MSC_RDPS_DewPointDepression_IsbL-0900_RLatLon0.09_PT079H.grib2 2026-04-30 03:04 458K
20260430T00Z_MSC_RDPS_DewPointDepression_IsbL-0925_RLatLon0.09_PT079H.grib2 2026-04-30 03:04 441K
20260430T00Z_MSC_RDPS_DewPointDepression_IsbL-0950_RLatLon0.09_PT079H.grib2 2026-04-30 03:04 438K
20260430T00Z_MSC_RDPS_DewPointDepression_IsbL-0970_RLatLon0.09_PT079H.grib2 2026-04-30 03:04 431K
20260430T00Z_MSC_RDPS_DewPointDepression_IsbL-0985_RLatLon0.09_PT079H.grib2 2026-04-30 03:04 428K
20260430T00Z_MSC_RDPS_DewPointDepression_IsbL-1000_RLatLon0.09_PT079H.grib2 2026-04-30 03:04 422K
20260430T00Z_MSC_RDPS_DewPointDepression_IsbL-1015_RLatLon0.09_PT079H.grib2 2026-04-30 03:04 414K
20260430T00Z_MSC_RDPS_DewPoint_AGL-2m_RLatLon0.09_PT079H.grib2 2026-04-30 03:04 306K
20260430T00Z_MSC_RDPS_DownwardLongwaveRadiationFlux-Accum_Sfc_RLatLon0.09_PT079H.grib2 2026-04-30 03:04 434K
20260430T00Z_MSC_RDPS_DownwardShortwaveRadiationFlux-Accum_NTAtm_RLatLon0.09_PT079H.grib2 2026-04-30 03:04 108K
20260430T00Z_MSC_RDPS_DownwardShortwaveRadiationFlux-Accum_Sfc_RLatLon0.09_PT079H.grib2 2026-04-30 03:04 625K
20260430T00Z_MSC_RDPS_FreezingRain-Accum1h_Sfc_RLatLon0.09_PT079H.grib2 2026-04-30 03:04 37K
20260430T00Z_MSC_RDPS_FreezingRain-Accum_Sfc_RLatLon0.09_PT079H.grib2 2026-04-30 03:04 225K
20260430T00Z_MSC_RDPS_GeopotentialHeight_IsbL-0001_RLatLon0.09_PT079H.grib2 2026-04-30 03:04 309K
20260430T00Z_MSC_RDPS_GeopotentialHeight_IsbL-0005_RLatLon0.09_PT079H.grib2 2026-04-30 03:04 335K
20260430T00Z_MSC_RDPS_GeopotentialHeight_IsbL-0010_RLatLon0.09_PT079H.grib2 2026-04-30 03:04 304K
20260430T00Z_MSC_RDPS_GeopotentialHeight_IsbL-0020_RLatLon0.09_PT079H.grib2 2026-04-30 03:04 400K
20260430T00Z_MSC_RDPS_GeopotentialHeight_IsbL-0030_RLatLon0.09_PT079H.grib2 2026-04-30 03:04 402K
20260430T00Z_MSC_RDPS_GeopotentialHeight_IsbL-0050_RLatLon0.09_PT079H.grib2 2026-04-30 03:04 310K
20260430T00Z_MSC_RDPS_GeopotentialHeight_IsbL-0100_RLatLon0.09_PT079H.grib2 2026-04-30 03:04 286K
20260430T00Z_MSC_RDPS_GeopotentialHeight_IsbL-0150_RLatLon0.09_PT079H.grib2 2026-04-30 03:04 229K
20260430T00Z_MSC_RDPS_GeopotentialHeight_IsbL-0175_RLatLon0.09_PT079H.grib2 2026-04-30 03:04 262K
20260430T00Z_MSC_RDPS_GeopotentialHeight_IsbL-0200_RLatLon0.09_PT079H.grib2 2026-04-30 03:04 264K
20260430T00Z_MSC_RDPS_GeopotentialHeight_IsbL-0225_RLatLon0.09_PT079H.grib2 2026-04-30 03:04 265K
20260430T00Z_MSC_RDPS_GeopotentialHeight_IsbL-0250_RLatLon0.09_PT079H.grib2 2026-04-30 03:04 266K
20260430T00Z_MSC_RDPS_GeopotentialHeight_IsbL-0275_RLatLon0.09_PT079H.grib2 2026-04-30 03:04 264K
20260430T00Z_MSC_RDPS_GeopotentialHeight_IsbL-0300_RLatLon0.09_PT079H.grib2 2026-04-30 03:04 263K
20260430T00Z_MSC_RDPS_GeopotentialHeight_IsbL-0350_RLatLon0.09_PT079H.grib2 2026-04-30 03:04 229K
20260430T00Z_MSC_RDPS_GeopotentialHeight_IsbL-0400_RLatLon0.09_PT079H.grib2 2026-04-30 03:04 226K
20260430T00Z_MSC_RDPS_GeopotentialHeight_IsbL-0450_RLatLon0.09_PT079H.grib2 2026-04-30 03:04 295K
20260430T00Z_MSC_RDPS_GeopotentialHeight_IsbL-0500_RLatLon0.09_PT079H.grib2 2026-04-30 03:04 290K
20260430T00Z_MSC_RDPS_GeopotentialHeight_IsbL-0550_RLatLon0.09_PT079H.grib2 2026-04-30 03:04 287K
20260430T00Z_MSC_RDPS_GeopotentialHeight_IsbL-0600_RLatLon0.09_PT079H.grib2 2026-04-30 03:04 285K
20260430T00Z_MSC_RDPS_GeopotentialHeight_IsbL-0650_RLatLon0.09_PT079H.grib2 2026-04-30 03:04 282K
20260430T00Z_MSC_RDPS_GeopotentialHeight_IsbL-0700_RLatLon0.09_PT079H.grib2 2026-04-30 03:04 253K
20260430T00Z_MSC_RDPS_GeopotentialHeight_IsbL-0750_RLatLon0.09_PT079H.grib2 2026-04-30 03:04 256K
20260430T00Z_MSC_RDPS_GeopotentialHeight_IsbL-0800_RLatLon0.09_PT079H.grib2 2026-04-30 03:04 263K
20260430T00Z_MSC_RDPS_GeopotentialHeight_IsbL-0850_RLatLon0.09_PT079H.grib2 2026-04-30 03:04 357K
20260430T00Z_MSC_RDPS_GeopotentialHeight_IsbL-0875_RLatLon0.09_PT079H.grib2 2026-04-30 03:04 359K
20260430T00Z_MSC_RDPS_GeopotentialHeight_IsbL-0900_RLatLon0.09_PT079H.grib2 2026-04-30 03:04 362K
20260430T00Z_MSC_RDPS_GeopotentialHeight_IsbL-0925_RLatLon0.09_PT079H.grib2 2026-04-30 03:04 363K
20260430T00Z_MSC_RDPS_GeopotentialHeight_IsbL-0950_RLatLon0.09_PT079H.grib2 2026-04-30 03:04 368K
20260430T00Z_MSC_RDPS_GeopotentialHeight_IsbL-0970_RLatLon0.09_PT079H.grib2 2026-04-30 03:04 373K
20260430T00Z_MSC_RDPS_GeopotentialHeight_IsbL-0985_RLatLon0.09_PT079H.grib2 2026-04-30 03:04 381K
20260430T00Z_MSC_RDPS_GeopotentialHeight_IsbL-1000_RLatLon0.09_PT079H.grib2 2026-04-30 03:04 392K
20260430T00Z_MSC_RDPS_GeopotentialHeight_IsbL-1015_RLatLon0.09_PT079H.grib2 2026-04-30 03:04 311K
20260430T00Z_MSC_RDPS_Humidex_Sfc_RLatLon0.09_PT079H.grib2 2026-04-30 03:04 2.4M
20260430T00Z_MSC_RDPS_IcePellets-Accum1h_Sfc_RLatLon0.09_PT079H.grib2 2026-04-30 03:04 3.2K
20260430T00Z_MSC_RDPS_IcePellets-Accum_Sfc_RLatLon0.09_PT079H.grib2 2026-04-30 03:04 36K
20260430T00Z_MSC_RDPS_KIndex_Sfc_RLatLon0.09_PT079H.grib2 2026-04-30 03:04 2.5M
20260430T00Z_MSC_RDPS_LatentHeatNetFlux_Sfc_RLatLon0.09_PT079H.grib2 2026-04-30 03:04 313K
20260430T00Z_MSC_RDPS_LiftedIndex-MU-VT_IsbL-0500_RLatLon0.09_PT079H.grib2 2026-04-30 03:04 2.4M
20260430T00Z_MSC_RDPS_NetLongwaveRadiationFlux-Accum_Sfc_RLatLon0.09_PT079H.grib2 2026-04-30 03:04 482K
20260430T00Z_MSC_RDPS_NetShortwaveRadiationFlux-Accum_Sfc_RLatLon0.09_PT079H.grib2 2026-04-30 03:04 627K
20260430T00Z_MSC_RDPS_PlanetaryBoundaryLayerHeight_Sfc_RLatLon0.09_PT079H.grib2 2026-04-30 03:04 1.1M
20260430T00Z_MSC_RDPS_Precip-Accum1h_Sfc_RLatLon0.09_PT079H.grib2 2026-04-30 03:04 1.1M
20260430T00Z_MSC_RDPS_Precip-Accum_Sfc_RLatLon0.09_PT079H.grib2 2026-04-30 03:04 2.2M
20260430T00Z_MSC_RDPS_PrecipRate_Sfc_RLatLon0.09_PT079H.grib2 2026-04-30 03:04 133K
20260430T00Z_MSC_RDPS_PrecipType-Instant_Sfc_RLatLon0.09_PT079H.grib2 2026-04-30 03:04 600K
20260430T00Z_MSC_RDPS_Pressure-Trend3h_Sfc_RLatLon0.09_PT079H.grib2 2026-04-30 03:04 1.2M
20260430T00Z_MSC_RDPS_Pressure_MSL_RLatLon0.09_PT079H.grib2 2026-04-30 03:04 325K
20260430T00Z_MSC_RDPS_Pressure_PVU-1.5_RLatLon0.09_PT079H.grib2 2026-04-30 03:04 2.5M
20260430T00Z_MSC_RDPS_Pressure_PVU-1_RLatLon0.09_PT079H.grib2 2026-04-30 03:04 2.4M
20260430T00Z_MSC_RDPS_Pressure_PVU-2_RLatLon0.09_PT079H.grib2 2026-04-30 03:04 2.4M
20260430T00Z_MSC_RDPS_Pressure_Sfc_RLatLon0.09_PT079H.grib2 2026-04-30 03:04 499K
20260430T00Z_MSC_RDPS_RadiativeTemp_Sfc_RLatLon0.09_PT079H.grib2 2026-04-30 03:04 305K
20260430T00Z_MSC_RDPS_Rain-Accum1h_Sfc_RLatLon0.09_PT079H.grib2 2026-04-30 03:04 511K
20260430T00Z_MSC_RDPS_Rain-Accum_Sfc_RLatLon0.09_PT079H.grib2 2026-04-30 03:04 1.8M
20260430T00Z_MSC_RDPS_RelativeHumidity_AGL-2m_RLatLon0.09_PT079H.grib2 2026-04-30 03:04 1.0M
20260430T00Z_MSC_RDPS_RelativeHumidity_IsbL-0010_RLatLon0.09_PT079H.grib2 2026-04-30 03:04 610K
20260430T00Z_MSC_RDPS_RelativeHumidity_IsbL-0020_RLatLon0.09_PT079H.grib2 2026-04-30 03:04 654K
20260430T00Z_MSC_RDPS_RelativeHumidity_IsbL-0030_RLatLon0.09_PT079H.grib2 2026-04-30 03:04 601K
20260430T00Z_MSC_RDPS_RelativeHumidity_IsbL-0050_RLatLon0.09_PT079H.grib2 2026-04-30 03:04 360K
20260430T00Z_MSC_RDPS_RelativeHumidity_IsbL-0100_RLatLon0.09_PT079H.grib2 2026-04-30 03:04 277K
20260430T00Z_MSC_RDPS_RelativeHumidity_IsbL-0150_RLatLon0.09_PT079H.grib2 2026-04-30 03:04 414K
20260430T00Z_MSC_RDPS_RelativeHumidity_IsbL-0175_RLatLon0.09_PT079H.grib2 2026-04-30 03:04 477K
20260430T00Z_MSC_RDPS_RelativeHumidity_IsbL-0200_RLatLon0.09_PT079H.grib2 2026-04-30 03:04 551K
20260430T00Z_MSC_RDPS_RelativeHumidity_IsbL-0225_RLatLon0.09_PT079H.grib2 2026-04-30 03:04 615K
20260430T00Z_MSC_RDPS_RelativeHumidity_IsbL-0250_RLatLon0.09_PT079H.grib2 2026-04-30 03:04 679K
20260430T00Z_MSC_RDPS_RelativeHumidity_IsbL-0275_RLatLon0.09_PT079H.grib2 2026-04-30 03:04 707K
20260430T00Z_MSC_RDPS_RelativeHumidity_IsbL-0300_RLatLon0.09_PT079H.grib2 2026-04-30 03:04 750K
20260430T00Z_MSC_RDPS_RelativeHumidity_IsbL-0350_RLatLon0.09_PT079H.grib2 2026-04-30 03:04 774K
20260430T00Z_MSC_RDPS_RelativeHumidity_IsbL-0400_RLatLon0.09_PT079H.grib2 2026-04-30 03:04 789K
20260430T00Z_MSC_RDPS_RelativeHumidity_IsbL-0450_RLatLon0.09_PT079H.grib2 2026-04-30 03:04 796K
20260430T00Z_MSC_RDPS_RelativeHumidity_IsbL-0500_RLatLon0.09_PT079H.grib2 2026-04-30 03:04 803K
20260430T00Z_MSC_RDPS_RelativeHumidity_IsbL-0550_RLatLon0.09_PT079H.grib2 2026-04-30 03:04 825K
20260430T00Z_MSC_RDPS_RelativeHumidity_IsbL-0600_RLatLon0.09_PT079H.grib2 2026-04-30 03:04 844K
20260430T00Z_MSC_RDPS_RelativeHumidity_IsbL-0650_RLatLon0.09_PT079H.grib2 2026-04-30 03:04 851K
20260430T00Z_MSC_RDPS_RelativeHumidity_IsbL-0700_RLatLon0.09_PT079H.grib2 2026-04-30 03:04 881K
20260430T00Z_MSC_RDPS_RelativeHumidity_IsbL-0750_RLatLon0.09_PT079H.grib2 2026-04-30 03:04 918K
20260430T00Z_MSC_RDPS_RelativeHumidity_IsbL-0800_RLatLon0.09_PT079H.grib2 2026-04-30 03:04 1.0M
20260430T00Z_MSC_RDPS_RelativeHumidity_IsbL-0850_RLatLon0.09_PT079H.grib2 2026-04-30 03:04 1.0M
20260430T00Z_MSC_RDPS_RelativeHumidity_IsbL-0875_RLatLon0.09_PT079H.grib2 2026-04-30 03:04 1.0M
20260430T00Z_MSC_RDPS_RelativeHumidity_IsbL-0900_RLatLon0.09_PT079H.grib2 2026-04-30 03:04 1.1M
20260430T00Z_MSC_RDPS_RelativeHumidity_IsbL-0925_RLatLon0.09_PT079H.grib2 2026-04-30 03:04 1.0M
20260430T00Z_MSC_RDPS_RelativeHumidity_IsbL-0950_RLatLon0.09_PT079H.grib2 2026-04-30 03:04 1.1M
20260430T00Z_MSC_RDPS_RelativeHumidity_IsbL-0970_RLatLon0.09_PT079H.grib2 2026-04-30 03:04 1.0M
20260430T00Z_MSC_RDPS_RelativeHumidity_IsbL-0985_RLatLon0.09_PT079H.grib2 2026-04-30 03:04 1.0M
20260430T00Z_MSC_RDPS_RelativeHumidity_IsbL-1000_RLatLon0.09_PT079H.grib2 2026-04-30 03:04 1.0M
20260430T00Z_MSC_RDPS_RelativeHumidity_IsbL-1015_RLatLon0.09_PT079H.grib2 2026-04-30 03:04 1.0M
20260430T00Z_MSC_RDPS_Runoff-Accum_Sfc_RLatLon0.09_PT079H.grib2 2026-04-30 03:04 72K
20260430T00Z_MSC_RDPS_SWEATIndex_Sfc_RLatLon0.09_PT079H.grib2 2026-04-30 03:04 2.4M
20260430T00Z_MSC_RDPS_SeeingIndex_EAtm_RLatLon0.09_PT079H.grib2 2026-04-30 03:04 1.0M
20260430T00Z_MSC_RDPS_SensibleHeatNetFlux_Sfc_RLatLon0.09_PT079H.grib2 2026-04-30 03:04 293K
20260430T00Z_MSC_RDPS_ShowalterIndex_IsbL-0500_RLatLon0.09_PT079H.grib2 2026-04-30 03:04 2.6M
20260430T00Z_MSC_RDPS_SkyTransparencyIndex_EAtm_RLatLon0.09_PT079H.grib2 2026-04-30 03:04 694K
20260430T00Z_MSC_RDPS_Snow-Accum1h_Sfc_RLatLon0.09_PT079H.grib2 2026-04-30 03:04 529K
20260430T00Z_MSC_RDPS_Snow-Accum_Sfc_RLatLon0.09_PT079H.grib2 2026-04-30 03:04 788K
20260430T00Z_MSC_RDPS_SnowDensity_Sfc_RLatLon0.09_PT079H.grib2 2026-04-30 03:04 177K
20260430T00Z_MSC_RDPS_SnowDepth_Sfc_RLatLon0.09_PT079H.grib2 2026-04-30 03:04 661K
20260430T00Z_MSC_RDPS_SoilTemp_DBS-0to10cm_RLatLon0.09_PT079H.grib2 2026-04-30 03:04 245K
20260430T00Z_MSC_RDPS_SoilTemp_Sfc_RLatLon0.09_PT079H.grib2 2026-04-30 03:04 267K
20260430T00Z_MSC_RDPS_SoilVolumetricIceContent_Sfc_RLatLon0.09_PT079H.grib2 2026-04-30 03:04 159K
20260430T00Z_MSC_RDPS_SoilVolumetricWaterContent_DBS-0to10cm_RLatLon0.09_PT079H.grib2 2026-04-30 03:04 274K
20260430T00Z_MSC_RDPS_SoilVolumetricWaterContent_DBS-0to1cm_RLatLon0.09_PT079H.grib2 2026-04-30 03:04 343K
20260430T00Z_MSC_RDPS_SpecificHumidity_AGL-120m_RLatLon0.09_PT079H.grib2 2026-04-30 03:04 488K
20260430T00Z_MSC_RDPS_SpecificHumidity_AGL-2m_RLatLon0.09_PT079H.grib2 2026-04-30 03:04 652K
20260430T00Z_MSC_RDPS_SpecificHumidity_AGL-40m_RLatLon0.09_PT079H.grib2 2026-04-30 03:04 494K
20260430T00Z_MSC_RDPS_SpecificHumidity_AGL-80m_RLatLon0.09_PT079H.grib2 2026-04-30 03:04 490K
20260430T00Z_MSC_RDPS_SpecificHumidity_IsbL-0001_RLatLon0.09_PT079H.grib2 2026-04-30 03:04 353K
20260430T00Z_MSC_RDPS_SpecificHumidity_IsbL-0005_RLatLon0.09_PT079H.grib2 2026-04-30 03:04 352K
20260430T00Z_MSC_RDPS_SpecificHumidity_IsbL-0010_RLatLon0.09_PT079H.grib2 2026-04-30 03:04 388K
20260430T00Z_MSC_RDPS_SpecificHumidity_IsbL-0020_RLatLon0.09_PT079H.grib2 2026-04-30 03:04 369K
20260430T00Z_MSC_RDPS_SpecificHumidity_IsbL-0030_RLatLon0.09_PT079H.grib2 2026-04-30 03:04 467K
20260430T00Z_MSC_RDPS_SpecificHumidity_IsbL-0050_RLatLon0.09_PT079H.grib2 2026-04-30 03:04 436K
20260430T00Z_MSC_RDPS_SpecificHumidity_IsbL-0100_RLatLon0.09_PT079H.grib2 2026-04-30 03:04 417K
20260430T00Z_MSC_RDPS_SpecificHumidity_IsbL-0150_RLatLon0.09_PT079H.grib2 2026-04-30 03:04 453K
20260430T00Z_MSC_RDPS_SpecificHumidity_IsbL-0175_RLatLon0.09_PT079H.grib2 2026-04-30 03:04 435K
20260430T00Z_MSC_RDPS_SpecificHumidity_IsbL-0200_RLatLon0.09_PT079H.grib2 2026-04-30 03:04 448K
20260430T00Z_MSC_RDPS_SpecificHumidity_IsbL-0225_RLatLon0.09_PT079H.grib2 2026-04-30 03:04 463K
20260430T00Z_MSC_RDPS_SpecificHumidity_IsbL-0250_RLatLon0.09_PT079H.grib2 2026-04-30 03:04 507K
20260430T00Z_MSC_RDPS_SpecificHumidity_IsbL-0275_RLatLon0.09_PT079H.grib2 2026-04-30 03:04 470K
20260430T00Z_MSC_RDPS_SpecificHumidity_IsbL-0300_RLatLon0.09_PT079H.grib2 2026-04-30 03:04 568K
20260430T00Z_MSC_RDPS_SpecificHumidity_IsbL-0350_RLatLon0.09_PT079H.grib2 2026-04-30 03:04 538K
20260430T00Z_MSC_RDPS_SpecificHumidity_IsbL-0400_RLatLon0.09_PT079H.grib2 2026-04-30 03:04 522K
20260430T00Z_MSC_RDPS_SpecificHumidity_IsbL-0450_RLatLon0.09_PT079H.grib2 2026-04-30 03:04 572K
20260430T00Z_MSC_RDPS_SpecificHumidity_IsbL-0500_RLatLon0.09_PT079H.grib2 2026-04-30 03:04 508K
20260430T00Z_MSC_RDPS_SpecificHumidity_IsbL-0550_RLatLon0.09_PT079H.grib2 2026-04-30 03:04 584K
20260430T00Z_MSC_RDPS_SpecificHumidity_IsbL-0600_RLatLon0.09_PT079H.grib2 2026-04-30 03:04 637K
20260430T00Z_MSC_RDPS_SpecificHumidity_IsbL-0650_RLatLon0.09_PT079H.grib2 2026-04-30 03:04 549K
20260430T00Z_MSC_RDPS_SpecificHumidity_IsbL-0700_RLatLon0.09_PT079H.grib2 2026-04-30 03:04 591K
20260430T00Z_MSC_RDPS_SpecificHumidity_IsbL-0750_RLatLon0.09_PT079H.grib2 2026-04-30 03:04 643K
20260430T00Z_MSC_RDPS_SpecificHumidity_IsbL-0800_RLatLon0.09_PT079H.grib2 2026-04-30 03:04 719K
20260430T00Z_MSC_RDPS_SpecificHumidity_IsbL-0850_RLatLon0.09_PT079H.grib2 2026-04-30 03:04 795K
20260430T00Z_MSC_RDPS_SpecificHumidity_IsbL-0875_RLatLon0.09_PT079H.grib2 2026-04-30 03:04 823K
20260430T00Z_MSC_RDPS_SpecificHumidity_IsbL-0900_RLatLon0.09_PT079H.grib2 2026-04-30 03:04 834K
20260430T00Z_MSC_RDPS_SpecificHumidity_IsbL-0925_RLatLon0.09_PT079H.grib2 2026-04-30 03:04 693K
20260430T00Z_MSC_RDPS_SpecificHumidity_IsbL-0950_RLatLon0.09_PT079H.grib2 2026-04-30 03:04 695K
20260430T00Z_MSC_RDPS_SpecificHumidity_IsbL-0970_RLatLon0.09_PT079H.grib2 2026-04-30 03:04 688K
20260430T00Z_MSC_RDPS_SpecificHumidity_IsbL-0985_RLatLon0.09_PT079H.grib2 2026-04-30 03:04 683K
20260430T00Z_MSC_RDPS_SpecificHumidity_IsbL-1000_RLatLon0.09_PT079H.grib2 2026-04-30 03:04 676K
20260430T00Z_MSC_RDPS_SpecificHumidity_IsbL-1015_RLatLon0.09_PT079H.grib2 2026-04-30 03:04 664K
20260430T00Z_MSC_RDPS_SpecificHumidity_Sfc_RLatLon0.09_PT079H.grib2 2026-04-30 03:04 296K
20260430T00Z_MSC_RDPS_StormRelativeHelicity_EtaL-10000_RLatLon0.09_PT079H.grib2 2026-04-30 03:04 1.1M
20260430T00Z_MSC_RDPS_StormSeverityIndex_EtaL-10000_RLatLon0.09_PT079H.grib2 2026-04-30 03:04 1.2M
20260430T00Z_MSC_RDPS_Thickness_IsbL-0850to0700_RLatLon0.09_PT079H.grib2 2026-04-30 03:04 176K
20260430T00Z_MSC_RDPS_Thickness_IsbL-1000to0500_RLatLon0.09_PT079H.grib2 2026-04-30 03:04 195K
20260430T00Z_MSC_RDPS_Thickness_IsbL-1000to0850_RLatLon0.09_PT079H.grib2 2026-04-30 03:04 259K
20260430T00Z_MSC_RDPS_TotalCloudCover_Sfc_RLatLon0.09_PT079H.grib2 2026-04-30 03:04 659K
20260430T00Z_MSC_RDPS_TotalTotalsIndex_Sfc_RLatLon0.09_PT079H.grib2 2026-04-30 03:04 2.4M
20260430T00Z_MSC_RDPS_UVIndex-ClearSky_Sfc_RLatLon0.09_PT079H.grib2 2026-04-30 03:04 93K
20260430T00Z_MSC_RDPS_UVIndex_Sfc_RLatLon0.09_PT079H.grib2 2026-04-30 03:04 162K
20260430T00Z_MSC_RDPS_UpwardLongwaveRadiationFlux_NTAtm_RLatLon0.09_PT079H.grib2 2026-04-30 03:04 487K
20260430T00Z_MSC_RDPS_UpwardShortwaveRadiationFlux_NTAtm_RLatLon0.09_PT079H.grib2 2026-04-30 03:04 174K
20260430T00Z_MSC_RDPS_VerticalVelocity_IsbL-0250_RLatLon0.09_PT079H.grib2 2026-04-30 03:04 433K
20260430T00Z_MSC_RDPS_VerticalVelocity_IsbL-0500_RLatLon0.09_PT079H.grib2 2026-04-30 03:04 538K
20260430T00Z_MSC_RDPS_VerticalVelocity_IsbL-0700_RLatLon0.09_PT079H.grib2 2026-04-30 03:04 591K
20260430T00Z_MSC_RDPS_VerticalVelocity_IsbL-0850_RLatLon0.09_PT079H.grib2 2026-04-30 03:04 690K
20260430T00Z_MSC_RDPS_VerticalWindShear_EtaL-6500_RLatLon0.09_PT079H.grib2 2026-04-30 03:04 1.2M
20260430T00Z_MSC_RDPS_WindChill_Sfc_RLatLon0.09_PT079H.grib2 2026-04-30 03:04 1.2M
20260430T00Z_MSC_RDPS_WindDir_AGL-10m_RLatLon0.09_PT079H.grib2 2026-04-30 03:04 963K
20260430T00Z_MSC_RDPS_WindDir_AGL-120m_RLatLon0.09_PT079H.grib2 2026-04-30 03:04 595K
20260430T00Z_MSC_RDPS_WindDir_AGL-40m_RLatLon0.09_PT079H.grib2 2026-04-30 03:04 629K
20260430T00Z_MSC_RDPS_WindDir_AGL-80m_RLatLon0.09_PT079H.grib2 2026-04-30 03:04 607K
20260430T00Z_MSC_RDPS_WindDir_IsbL-0001_RLatLon0.09_PT079H.grib2 2026-04-30 03:04 304K
20260430T00Z_MSC_RDPS_WindDir_IsbL-0005_RLatLon0.09_PT079H.grib2 2026-04-30 03:04 395K
20260430T00Z_MSC_RDPS_WindDir_IsbL-0010_RLatLon0.09_PT079H.grib2 2026-04-30 03:04 397K
20260430T00Z_MSC_RDPS_WindDir_IsbL-0020_RLatLon0.09_PT079H.grib2 2026-04-30 03:04 424K
20260430T00Z_MSC_RDPS_WindDir_IsbL-0030_RLatLon0.09_PT079H.grib2 2026-04-30 03:04 425K
20260430T00Z_MSC_RDPS_WindDir_IsbL-0050_RLatLon0.09_PT079H.grib2 2026-04-30 03:04 420K
20260430T00Z_MSC_RDPS_WindDir_IsbL-0100_RLatLon0.09_PT079H.grib2 2026-04-30 03:04 415K
20260430T00Z_MSC_RDPS_WindDir_IsbL-0150_RLatLon0.09_PT079H.grib2 2026-04-30 03:04 407K
20260430T00Z_MSC_RDPS_WindDir_IsbL-0175_RLatLon0.09_PT079H.grib2 2026-04-30 03:04 428K
20260430T00Z_MSC_RDPS_WindDir_IsbL-0200_RLatLon0.09_PT079H.grib2 2026-04-30 03:04 444K
20260430T00Z_MSC_RDPS_WindDir_IsbL-0225_RLatLon0.09_PT079H.grib2 2026-04-30 03:04 451K
20260430T00Z_MSC_RDPS_WindDir_IsbL-0250_RLatLon0.09_PT079H.grib2 2026-04-30 03:04 452K
20260430T00Z_MSC_RDPS_WindDir_IsbL-0275_RLatLon0.09_PT079H.grib2 2026-04-30 03:04 479K
20260430T00Z_MSC_RDPS_WindDir_IsbL-0300_RLatLon0.09_PT079H.grib2 2026-04-30 03:04 476K
20260430T00Z_MSC_RDPS_WindDir_IsbL-0350_RLatLon0.09_PT079H.grib2 2026-04-30 03:04 501K
20260430T00Z_MSC_RDPS_WindDir_IsbL-0400_RLatLon0.09_PT079H.grib2 2026-04-30 03:04 521K
20260430T00Z_MSC_RDPS_WindDir_IsbL-0450_RLatLon0.09_PT079H.grib2 2026-04-30 03:04 530K
20260430T00Z_MSC_RDPS_WindDir_IsbL-0500_RLatLon0.09_PT079H.grib2 2026-04-30 03:04 540K
20260430T00Z_MSC_RDPS_WindDir_IsbL-0550_RLatLon0.09_PT079H.grib2 2026-04-30 03:04 549K
20260430T00Z_MSC_RDPS_WindDir_IsbL-0600_RLatLon0.09_PT079H.grib2 2026-04-30 03:04 570K
20260430T00Z_MSC_RDPS_WindDir_IsbL-0650_RLatLon0.09_PT079H.grib2 2026-04-30 03:04 603K
20260430T00Z_MSC_RDPS_WindDir_IsbL-0700_RLatLon0.09_PT079H.grib2 2026-04-30 03:04 643K
20260430T00Z_MSC_RDPS_WindDir_IsbL-0750_RLatLon0.09_PT079H.grib2 2026-04-30 03:04 687K
20260430T00Z_MSC_RDPS_WindDir_IsbL-0800_RLatLon0.09_PT079H.grib2 2026-04-30 03:04 753K
20260430T00Z_MSC_RDPS_WindDir_IsbL-0850_RLatLon0.09_PT079H.grib2 2026-04-30 03:04 844K
20260430T00Z_MSC_RDPS_WindDir_IsbL-0875_RLatLon0.09_PT079H.grib2 2026-04-30 03:04 876K
20260430T00Z_MSC_RDPS_WindDir_IsbL-0900_RLatLon0.09_PT079H.grib2 2026-04-30 03:04 893K
20260430T00Z_MSC_RDPS_WindDir_IsbL-0925_RLatLon0.09_PT079H.grib2 2026-04-30 03:04 906K
20260430T00Z_MSC_RDPS_WindDir_IsbL-0950_RLatLon0.09_PT079H.grib2 2026-04-30 03:04 906K
20260430T00Z_MSC_RDPS_WindDir_IsbL-0970_RLatLon0.09_PT079H.grib2 2026-04-30 03:04 918K
20260430T00Z_MSC_RDPS_WindDir_IsbL-0985_RLatLon0.09_PT079H.grib2 2026-04-30 03:04 926K
20260430T00Z_MSC_RDPS_WindDir_IsbL-1000_RLatLon0.09_PT079H.grib2 2026-04-30 03:04 938K
20260430T00Z_MSC_RDPS_WindDir_IsbL-1015_RLatLon0.09_PT079H.grib2 2026-04-30 03:04 953K
20260430T00Z_MSC_RDPS_WindGust-Max_AGL-10m_RLatLon0.09_PT079H.grib2 2026-04-30 03:04 1.0M
20260430T00Z_MSC_RDPS_WindGust-Min_AGL-10m_RLatLon0.09_PT079H.grib2 2026-04-30 03:04 970K
20260430T00Z_MSC_RDPS_WindGust_AGL-10m_RLatLon0.09_PT079H.grib2 2026-04-30 03:04 1.0M
20260430T00Z_MSC_RDPS_WindSpeed_AGL-10m_RLatLon0.09_PT079H.grib2 2026-04-30 03:04 837K
20260430T00Z_MSC_RDPS_WindSpeed_AGL-120m_RLatLon0.09_PT079H.grib2 2026-04-30 03:04 540K
20260430T00Z_MSC_RDPS_WindSpeed_AGL-40m_RLatLon0.09_PT079H.grib2 2026-04-30 03:04 541K
20260430T00Z_MSC_RDPS_WindSpeed_AGL-80m_RLatLon0.09_PT079H.grib2 2026-04-30 03:04 540K
20260430T00Z_MSC_RDPS_WindSpeed_IsbL-0001_RLatLon0.09_PT079H.grib2 2026-04-30 03:04 253K
20260430T00Z_MSC_RDPS_WindSpeed_IsbL-0005_RLatLon0.09_PT079H.grib2 2026-04-30 03:04 384K
20260430T00Z_MSC_RDPS_WindSpeed_IsbL-0010_RLatLon0.09_PT079H.grib2 2026-04-30 03:04 364K
20260430T00Z_MSC_RDPS_WindSpeed_IsbL-0020_RLatLon0.09_PT079H.grib2 2026-04-30 03:04 418K
20260430T00Z_MSC_RDPS_WindSpeed_IsbL-0030_RLatLon0.09_PT079H.grib2 2026-04-30 03:04 319K
20260430T00Z_MSC_RDPS_WindSpeed_IsbL-0050_RLatLon0.09_PT079H.grib2 2026-04-30 03:04 349K
20260430T00Z_MSC_RDPS_WindSpeed_IsbL-0100_RLatLon0.09_PT079H.grib2 2026-04-30 03:04 474K
20260430T00Z_MSC_RDPS_WindSpeed_IsbL-0150_RLatLon0.09_PT079H.grib2 2026-04-30 03:04 383K
20260430T00Z_MSC_RDPS_WindSpeed_IsbL-0175_RLatLon0.09_PT079H.grib2 2026-04-30 03:04 430K
20260430T00Z_MSC_RDPS_WindSpeed_IsbL-0200_RLatLon0.09_PT079H.grib2 2026-04-30 03:04 444K
20260430T00Z_MSC_RDPS_WindSpeed_IsbL-0225_RLatLon0.09_PT079H.grib2 2026-04-30 03:04 450K
20260430T00Z_MSC_RDPS_WindSpeed_IsbL-0250_RLatLon0.09_PT079H.grib2 2026-04-30 03:04 453K
20260430T00Z_MSC_RDPS_WindSpeed_IsbL-0275_RLatLon0.09_PT079H.grib2 2026-04-30 03:04 472K
20260430T00Z_MSC_RDPS_WindSpeed_IsbL-0300_RLatLon0.09_PT079H.grib2 2026-04-30 03:04 469K
20260430T00Z_MSC_RDPS_WindSpeed_IsbL-0350_RLatLon0.09_PT079H.grib2 2026-04-30 03:04 478K
20260430T00Z_MSC_RDPS_WindSpeed_IsbL-0400_RLatLon0.09_PT079H.grib2 2026-04-30 03:04 463K
20260430T00Z_MSC_RDPS_WindSpeed_IsbL-0450_RLatLon0.09_PT079H.grib2 2026-04-30 03:04 464K
20260430T00Z_MSC_RDPS_WindSpeed_IsbL-0500_RLatLon0.09_PT079H.grib2 2026-04-30 03:04 463K
20260430T00Z_MSC_RDPS_WindSpeed_IsbL-0550_RLatLon0.09_PT079H.grib2 2026-04-30 03:04 582K
20260430T00Z_MSC_RDPS_WindSpeed_IsbL-0600_RLatLon0.09_PT079H.grib2 2026-04-30 03:04 590K
20260430T00Z_MSC_RDPS_WindSpeed_IsbL-0650_RLatLon0.09_PT079H.grib2 2026-04-30 03:04 608K
20260430T00Z_MSC_RDPS_WindSpeed_IsbL-0700_RLatLon0.09_PT079H.grib2 2026-04-30 03:04 631K
20260430T00Z_MSC_RDPS_WindSpeed_IsbL-0750_RLatLon0.09_PT079H.grib2 2026-04-30 03:04 705K
20260430T00Z_MSC_RDPS_WindSpeed_IsbL-0800_RLatLon0.09_PT079H.grib2 2026-04-30 03:04 750K
20260430T00Z_MSC_RDPS_WindSpeed_IsbL-0850_RLatLon0.09_PT079H.grib2 2026-04-30 03:04 813K
20260430T00Z_MSC_RDPS_WindSpeed_IsbL-0875_RLatLon0.09_PT079H.grib2 2026-04-30 03:04 837K
20260430T00Z_MSC_RDPS_WindSpeed_IsbL-0900_RLatLon0.09_PT079H.grib2 2026-04-30 03:04 849K
20260430T00Z_MSC_RDPS_WindSpeed_IsbL-0925_RLatLon0.09_PT079H.grib2 2026-04-30 03:04 863K
20260430T00Z_MSC_RDPS_WindSpeed_IsbL-0950_RLatLon0.09_PT079H.grib2 2026-04-30 03:04 860K
20260430T00Z_MSC_RDPS_WindSpeed_IsbL-0970_RLatLon0.09_PT079H.grib2 2026-04-30 03:04 863K
20260430T00Z_MSC_RDPS_WindSpeed_IsbL-0985_RLatLon0.09_PT079H.grib2 2026-04-30 03:04 856K
20260430T00Z_MSC_RDPS_WindSpeed_IsbL-1000_RLatLon0.09_PT079H.grib2 2026-04-30 03:04 848K
20260430T00Z_MSC_RDPS_WindSpeed_IsbL-1015_RLatLon0.09_PT079H.grib2 2026-04-30 03:04 837K
20260430T00Z_MSC_RDPS_WindU_AGL-10m_RLatLon0.09_PT079H.grib2 2026-04-30 03:04 429K
20260430T00Z_MSC_RDPS_WindU_AGL-120m_RLatLon0.09_PT079H.grib2 2026-04-30 03:04 418K
20260430T00Z_MSC_RDPS_WindU_AGL-40m_RLatLon0.09_PT079H.grib2 2026-04-30 03:04 537K
20260430T00Z_MSC_RDPS_WindU_AGL-80m_RLatLon0.09_PT079H.grib2 2026-04-30 03:04 536K
20260430T00Z_MSC_RDPS_WindU_IsbL-0001_RLatLon0.09_PT079H.grib2 2026-04-30 03:04 242K
20260430T00Z_MSC_RDPS_WindU_IsbL-0005_RLatLon0.09_PT079H.grib2 2026-04-30 03:04 284K
20260430T00Z_MSC_RDPS_WindU_IsbL-0010_RLatLon0.09_PT079H.grib2 2026-04-30 03:04 295K
20260430T00Z_MSC_RDPS_WindU_IsbL-0020_RLatLon0.09_PT079H.grib2 2026-04-30 03:04 312K
20260430T00Z_MSC_RDPS_WindU_IsbL-0030_RLatLon0.09_PT079H.grib2 2026-04-30 03:04 353K
20260430T00Z_MSC_RDPS_WindU_IsbL-0050_RLatLon0.09_PT079H.grib2 2026-04-30 03:04 379K
20260430T00Z_MSC_RDPS_WindU_IsbL-0100_RLatLon0.09_PT079H.grib2 2026-04-30 03:04 431K
20260430T00Z_MSC_RDPS_WindU_IsbL-0150_RLatLon0.09_PT079H.grib2 2026-04-30 03:04 398K
20260430T00Z_MSC_RDPS_WindU_IsbL-0175_RLatLon0.09_PT079H.grib2 2026-04-30 03:04 422K
20260430T00Z_MSC_RDPS_WindU_IsbL-0200_RLatLon0.09_PT079H.grib2 2026-04-30 03:04 338K
20260430T00Z_MSC_RDPS_WindU_IsbL-0225_RLatLon0.09_PT079H.grib2 2026-04-30 03:04 342K
20260430T00Z_MSC_RDPS_WindU_IsbL-0250_RLatLon0.09_PT079H.grib2 2026-04-30 03:04 343K
20260430T00Z_MSC_RDPS_WindU_IsbL-0275_RLatLon0.09_PT079H.grib2 2026-04-30 03:04 359K
20260430T00Z_MSC_RDPS_WindU_IsbL-0300_RLatLon0.09_PT079H.grib2 2026-04-30 03:04 356K
20260430T00Z_MSC_RDPS_WindU_IsbL-0350_RLatLon0.09_PT079H.grib2 2026-04-30 03:04 364K
20260430T00Z_MSC_RDPS_WindU_IsbL-0400_RLatLon0.09_PT079H.grib2 2026-04-30 03:04 469K
20260430T00Z_MSC_RDPS_WindU_IsbL-0450_RLatLon0.09_PT079H.grib2 2026-04-30 03:04 470K
20260430T00Z_MSC_RDPS_WindU_IsbL-0500_RLatLon0.09_PT079H.grib2 2026-04-30 03:04 471K
20260430T00Z_MSC_RDPS_WindU_IsbL-0550_RLatLon0.09_PT079H.grib2 2026-04-30 03:04 472K
20260430T00Z_MSC_RDPS_WindU_IsbL-0600_RLatLon0.09_PT079H.grib2 2026-04-30 03:04 478K
20260430T00Z_MSC_RDPS_WindU_IsbL-0650_RLatLon0.09_PT079H.grib2 2026-04-30 03:04 478K
20260430T00Z_MSC_RDPS_WindU_IsbL-0700_RLatLon0.09_PT079H.grib2 2026-04-30 03:04 500K
20260430T00Z_MSC_RDPS_WindU_IsbL-0750_RLatLon0.09_PT079H.grib2 2026-04-30 03:04 526K
20260430T00Z_MSC_RDPS_WindU_IsbL-0800_RLatLon0.09_PT079H.grib2 2026-04-30 03:04 566K
20260430T00Z_MSC_RDPS_WindU_IsbL-0850_RLatLon0.09_PT079H.grib2 2026-04-30 03:04 621K
20260430T00Z_MSC_RDPS_WindU_IsbL-0875_RLatLon0.09_PT079H.grib2 2026-04-30 03:04 642K
20260430T00Z_MSC_RDPS_WindU_IsbL-0900_RLatLon0.09_PT079H.grib2 2026-04-30 03:04 652K
20260430T00Z_MSC_RDPS_WindU_IsbL-0925_RLatLon0.09_PT079H.grib2 2026-04-30 03:04 660K
20260430T00Z_MSC_RDPS_WindU_IsbL-0950_RLatLon0.09_PT079H.grib2 2026-04-30 03:04 657K
20260430T00Z_MSC_RDPS_WindU_IsbL-0970_RLatLon0.09_PT079H.grib2 2026-04-30 03:04 657K
20260430T00Z_MSC_RDPS_WindU_IsbL-0985_RLatLon0.09_PT079H.grib2 2026-04-30 03:04 651K
20260430T00Z_MSC_RDPS_WindU_IsbL-1000_RLatLon0.09_PT079H.grib2 2026-04-30 03:04 646K
20260430T00Z_MSC_RDPS_WindU_IsbL-1015_RLatLon0.09_PT079H.grib2 2026-04-30 03:04 777K
20260430T00Z_MSC_RDPS_WindV_AGL-10m_RLatLon0.09_PT079H.grib2 2026-04-30 03:04 430K
20260430T00Z_MSC_RDPS_WindV_AGL-120m_RLatLon0.09_PT079H.grib2 2026-04-30 03:04 535K
20260430T00Z_MSC_RDPS_WindV_AGL-40m_RLatLon0.09_PT079H.grib2 2026-04-30 03:04 538K
20260430T00Z_MSC_RDPS_WindV_AGL-80m_RLatLon0.09_PT079H.grib2 2026-04-30 03:04 536K
20260430T00Z_MSC_RDPS_WindV_IsbL-0001_RLatLon0.09_PT079H.grib2 2026-04-30 03:04 247K
20260430T00Z_MSC_RDPS_WindV_IsbL-0005_RLatLon0.09_PT079H.grib2 2026-04-30 03:04 287K
20260430T00Z_MSC_RDPS_WindV_IsbL-0010_RLatLon0.09_PT079H.grib2 2026-04-30 03:04 300K
20260430T00Z_MSC_RDPS_WindV_IsbL-0020_RLatLon0.09_PT079H.grib2 2026-04-30 03:04 316K
20260430T00Z_MSC_RDPS_WindV_IsbL-0030_RLatLon0.09_PT079H.grib2 2026-04-30 03:04 316K
20260430T00Z_MSC_RDPS_WindV_IsbL-0050_RLatLon0.09_PT079H.grib2 2026-04-30 03:04 343K
20260430T00Z_MSC_RDPS_WindV_IsbL-0100_RLatLon0.09_PT079H.grib2 2026-04-30 03:04 428K
20260430T00Z_MSC_RDPS_WindV_IsbL-0150_RLatLon0.09_PT079H.grib2 2026-04-30 03:04 399K
20260430T00Z_MSC_RDPS_WindV_IsbL-0175_RLatLon0.09_PT079H.grib2 2026-04-30 03:04 423K
20260430T00Z_MSC_RDPS_WindV_IsbL-0200_RLatLon0.09_PT079H.grib2 2026-04-30 03:04 436K
20260430T00Z_MSC_RDPS_WindV_IsbL-0225_RLatLon0.09_PT079H.grib2 2026-04-30 03:04 341K
20260430T00Z_MSC_RDPS_WindV_IsbL-0250_RLatLon0.09_PT079H.grib2 2026-04-30 03:04 343K
20260430T00Z_MSC_RDPS_WindV_IsbL-0275_RLatLon0.09_PT079H.grib2 2026-04-30 03:04 359K
20260430T00Z_MSC_RDPS_WindV_IsbL-0300_RLatLon0.09_PT079H.grib2 2026-04-30 03:04 356K
20260430T00Z_MSC_RDPS_WindV_IsbL-0350_RLatLon0.09_PT079H.grib2 2026-04-30 03:04 362K
20260430T00Z_MSC_RDPS_WindV_IsbL-0400_RLatLon0.09_PT079H.grib2 2026-04-30 03:04 364K
20260430T00Z_MSC_RDPS_WindV_IsbL-0450_RLatLon0.09_PT079H.grib2 2026-04-30 03:04 468K
20260430T00Z_MSC_RDPS_WindV_IsbL-0500_RLatLon0.09_PT079H.grib2 2026-04-30 03:04 468K
20260430T00Z_MSC_RDPS_WindV_IsbL-0550_RLatLon0.09_PT079H.grib2 2026-04-30 03:04 470K
20260430T00Z_MSC_RDPS_WindV_IsbL-0600_RLatLon0.09_PT079H.grib2 2026-04-30 03:04 477K
20260430T00Z_MSC_RDPS_WindV_IsbL-0650_RLatLon0.09_PT079H.grib2 2026-04-30 03:04 492K
20260430T00Z_MSC_RDPS_WindV_IsbL-0700_RLatLon0.09_PT079H.grib2 2026-04-30 03:04 512K
20260430T00Z_MSC_RDPS_WindV_IsbL-0750_RLatLon0.09_PT079H.grib2 2026-04-30 03:04 538K
20260430T00Z_MSC_RDPS_WindV_IsbL-0800_RLatLon0.09_PT079H.grib2 2026-04-30 03:04 575K
20260430T00Z_MSC_RDPS_WindV_IsbL-0850_RLatLon0.09_PT079H.grib2 2026-04-30 03:04 629K
20260430T00Z_MSC_RDPS_WindV_IsbL-0875_RLatLon0.09_PT079H.grib2 2026-04-30 03:04 640K
20260430T00Z_MSC_RDPS_WindV_IsbL-0900_RLatLon0.09_PT079H.grib2 2026-04-30 03:04 651K
20260430T00Z_MSC_RDPS_WindV_IsbL-0925_RLatLon0.09_PT079H.grib2 2026-04-30 03:04 660K
20260430T00Z_MSC_RDPS_WindV_IsbL-0950_RLatLon0.09_PT079H.grib2 2026-04-30 03:04 658K
20260430T00Z_MSC_RDPS_WindV_IsbL-0970_RLatLon0.09_PT079H.grib2 2026-04-30 03:04 659K
20260430T00Z_MSC_RDPS_WindV_IsbL-0985_RLatLon0.09_PT079H.grib2 2026-04-30 03:04 792K
20260430T00Z_MSC_RDPS_WindV_IsbL-1000_RLatLon0.09_PT079H.grib2 2026-04-30 03:04 784K
20260430T00Z_MSC_RDPS_WindV_IsbL-1015_RLatLon0.09_PT079H.grib2 2026-04-30 03:04 823K